Regional Weather Roundup
Issued by NWS Sterling, VA

Home | Current Version | Previous Version | Graphics & Text | Print | Product List | Glossary On
Versions: 1 2 3 4 5 6 7 8 9 10 11 12 13 14 15 16 17 18 19 20 21 22 23 24 25 26 27 28 29 30 31 32 33 34 35 36 37 38 39 40 41 42 43 44 45 46 47 48 49 50
984
ASUS41 KLWX 231411
RWRLWX

REGIONAL WEATHER ROUNDUP
NATIONAL WEATHER SERVICE BALTIMORE MD/WASHINGTON DC
900 AM EST FRI FEB 23 2018

Note: "FAIR" indicates few or no clouds below 12,000 feet
with no significant weather and/or obstructions to visibility.
 TC=TEMPERATURE CELSIUS

 * =Non NWS site. Station does not report precipitation (e.g. rain,
    snow, etc.), thunder, or fog.

DCZ001-MDZ009-015-VAZ040>042-051-053>054-231500-
WASHINGTON METRO

CITY           SKY/WX    TMP DP  RH WIND       PRES   REMARKS
WASHINGTON NAT CLOUDY    42  40  92 E5        30.59F
DULLES         CLOUDY    40  40 100 SE3       30.57S FOG
ANDREWS AFB    CLOUDY    39  38  94 NE6       30.56F FOG
FT BELVOIR     CLOUDY    41  39  93 CALM      30.58F
QUANTICO       CLOUDY    43  41  93 E5        30.59F
COLLEGE PARK*  CLOUDY    39  38  93 CALM      30.58F
LEESBURG*      CLOUDY    36  36 100 SE6       30.58S WCI  31
MANASSAS*      CLOUDY    41  39  93 SE3       30.58S
GAITHERSBURG*  CLOUDY    39  38  96 SE8       30.56F WCI  33

$$

MDZ006>007-011-014-231500-
BALTIMORE METRO

CITY           SKY/WX    TMP DP  RH WIND       PRES   REMARKS
BWI AIRPORT    CLOUDY    40  40 100 E8        30.57F FOG     WCI  34
MD SCIENCE CTR   N/A     41  39  93 MISG      30.59F
MARTIN STATE   LGT RAIN  39  39 100 NE3       30.61S FOG
ANNAPOLIS      LGT RAIN  42  41  96 NE6       30.57F FOG
FORT MEADE*    CLOUDY    37  37 100 E3        30.60F

$$

MDZ012-015-019>023-231500-
MARYLAND EASTERN SHORE

CITY           SKY/WX    TMP DP  RH WIND       PRES   REMARKS
OCEAN CITY     LGT RAIN  44  44 100 NE9       30.55F FOG
SALISBURY      CLOUDY    43  43 100 NE8       30.55S FOG
BAY BRIDGE AP* LGT RAIN  39  39 100 NE5       30.58F FOG
CAMBRIDGE*     PTSUNNY   41  41 100 CALM      30.57F FOG
EASTON*        CLOUDY    43  41  93 E6        30.61S FOG

$$

MDZ017>025-231500-
SOUTHERN MARYLAND

CITY           SKY/WX    TMP DP  RH WIND       PRES   REMARKS
PATUXENT RIVER CLOUDY    42  42 100 NE7       30.57F FOG
ST INIGOES     CLOUDY    42  42 100 N5        30.56F FOG
LEONARDTOWN*   CLOUDY    41  39  93 NE3       30.58F

$$

MDZ003>005-231500-
NORTH CENTRAL MARYLAND

CITY           SKY/WX    TMP DP  RH WIND       PRES   REMARKS
FREDERICK*     CLOUDY    43  43 100 CALM      30.60F
HAGERSTOWN APT CLOUDY    41  38  89 SE8       30.53F FOG
WESTMINSTER*   CLOUDY    39  39 100 SE6       30.55F WCI  35

$$

MDZ501>502-231500-
WESTERN MARYLAND

CITY           SKY/WX    TMP DP  RH WIND       PRES   REMARKS
OAKLAND*       CLOUDY    34  34 100 SE13      30.36F VSB<1/4 WCI  25
CUMBERLAND*    CLOUDY    41  41 100 CALM      30.53F

$$

VAZ025>031-231500-
SHENANDOAH VALLEY

CITY           SKY/WX    TMP DP  RH WIND       PRES   REMARKS
WINCHESTER*    CLOUDY    37  37 100 E8        30.55S WCI  31
FRONT ROYAL*   CLOUDY    41  39  93 CALM      30.50F
LURAY*         CLOUDY    43  43 100 CALM      30.50F FOG
NEW MARKET*    CLOUDY    41  40  97 CALM      30.49F
STAUNTON*      CLOUDY    41  41  99 S3        30.52F FOG
WAYNESBORO*    CLOUDY    40  40 100 SE8       30.49F WCI  35

$$

WVZ021-048>050-054>055-231500-
EASTERN WEST VIRGINIA PANHANDLE

CITY           SKY/WX    TMP DP  RH WIND       PRES   REMARKS
MARTINSBURG    CLOUDY    40  38  93 SE7       30.53S
PETERSBURG*    CLOUDY    42  40  94 CALM      30.46F

$$

VAZ036>039-050-231500-
CENTRAL FOOTHILLS

CITY           SKY/WX    TMP DP  RH WIND       PRES   REMARKS
CHARLOTTESVILL CLOUDY    44  41  89 E3        30.54F FOG
CULPEPER*      CLOUDY    42  40  92 CALM      30.58F
ORANGE*        CLOUDY    41  37  87 CALM      30.56S
GORDONSVILLE*  CLOUDY    41  41 100 E3        30.56S
WARRENTON*     CLOUDY    42  38  88 CALM      30.57S FOG

$$

VAZ055>057-231500-
NORTH AND CENTRAL PIEDMONT

CITY           SKY/WX    TMP DP  RH WIND       PRES   REMARKS
FREDERICKSBRG* CLOUDY    41  41 100 NE3       30.57F
STAFFORD*      CLOUDY    42  42 100 NE5       30.62S FOG

$$

NCZ024-NYZ072-PAZ021-071-VAZ022-071-231500-
OTHER REGIONAL OBSERVATIONS

CITY           SKY/WX    TMP DP  RH WIND       PRES   REMARKS
NEW YORK CITY  CLOUDY    37  32  82 CALM      30.66S
PHILADELPHIA   LGT RAIN  38  36  92 NE8       30.62S WCI  32
PITTSBURGH     LGT RAIN  46  45  96 SE7       30.27F
ROANOKE        DRIZZLE   45  44  97 S7        30.53S
RICHMOND       CLOUDY    43  42  97 N6        30.56S
RALEIGH        FOG       52  52 100 NE6       30.51S VSB 1/8

$$

ANZ530>537-231500-
MARINE OBSERVATIONS

STATION/POSITION TIME  TEMP    WIND        PRES
                       AIR SEA DIR/SP/G
                 (UTC) (F)     (DEG/KT/KT) (MB)
THOMAS PT LIGHT  1400   40 42   70/  4/  5   N/A
BALT KEY BRIDGE  1348   39      80/  7/  9 1036.0F
COVE POINT       1348   40      30/  5/  6 1036.1F
LEWISETTA        1348   42 47   50/  4/  7 1035.1F
SOLOMONS ISLAND  1348   41 43   30/  4/  7 1035.0F
PINEY POINT      1348           90/  4/  5   N/A

$$





USA.gov is the U.S. government's official web portal to all federal, state and local government web resources and services.